PHWJK EHEH-EHRD

Flight info

Callsign PHWJK
Flight time 0h 46m
Altitude 5000
Route INKET
Aircraft DA40/L-SDGRY/S

Departure

Time 2026-04-29 13:33
Airport Eindhoven Airport (EHEH)

Arrival

Time 2026-04-29 14:20
Airport Rotterdam The Hague Airport (EHRD)
Time Latitude Longitude Altitude Speed Heading
2026-04-29 13:21 51.45765 5.37742 68 ft 0 kts 72°
2026-04-29 13:27 51.45759 5.37763 66 ft 3 kts 194°
2026-04-29 13:28 51.45724 5.37684 63 ft 13 kts 237°
2026-04-29 13:28 51.45682 5.37592 69 ft 7 kts 233°
2026-04-29 13:28 51.45653 5.37521 67 ft 11 kts 240°
2026-04-29 13:28 51.45597 5.37347 68 ft 23 kts 243°
2026-04-29 13:29 51.45527 5.37132 68 ft 20 kts 250°
2026-04-29 13:29 51.45471 5.36959 66 ft 17 kts 239°
2026-04-29 13:29 51.45396 5.36871 70 ft 12 kts 216°
2026-04-29 13:29 51.45320 5.36805 69 ft 12 kts 186°
2026-04-29 13:30 51.45212 5.36835 69 ft 16 kts 146°
2026-04-29 13:30 51.45153 5.36847 69 ft 13 kts 168°
2026-04-29 13:30 51.45047 5.36881 69 ft 12 kts 168°
2026-04-29 13:30 51.44977 5.36900 69 ft 8 kts 169°
2026-04-29 13:31 51.44919 5.36919 61 ft 7 kts 169°
2026-04-29 13:31 51.44860 5.36938 64 ft 11 kts 154°
2026-04-29 13:31 51.44778 5.37004 69 ft 17 kts 132°
2026-04-29 13:31 51.44758 5.37046 70 ft 7 kts 136°
2026-04-29 13:32 51.44723 5.37122 70 ft 0 kts 45°
2026-04-29 13:32 51.44726 5.37127 66 ft 8 kts 45°
2026-04-29 13:32 51.44897 5.37331 69 ft 52 kts 35°
2026-04-29 13:32 51.45268 5.37737 125 ft 72 kts 41°
2026-04-29 13:33 51.45698 5.38192 279 ft 74 kts 46°
2026-04-29 13:33 51.46127 5.38649 386 ft 78 kts 42°
2026-04-29 13:33 51.46569 5.39152 538 ft 74 kts 45°
2026-04-29 13:33 51.46971 5.39639 715 ft 76 kts 47°
2026-04-29 13:34 51.47403 5.40107 944 ft 71 kts 43°
2026-04-29 13:34 51.47804 5.40554 1176 ft 71 kts 49°
2026-04-29 13:34 51.48226 5.41034 1368 ft 77 kts 45°
2026-04-29 13:34 51.48657 5.41508 1597 ft 74 kts 45°
2026-04-29 13:35 51.49082 5.41989 1759 ft 76 kts 44°
2026-04-29 13:35 51.49513 5.42474 1984 ft 75 kts 45°
2026-04-29 13:35 51.49948 5.42965 2179 ft 78 kts 44°
2026-04-29 13:35 51.50370 5.43438 2412 ft 73 kts 43°
2026-04-29 13:36 51.50865 5.43734 2580 ft 82 kts 19°
2026-04-29 13:36 51.51460 5.43575 2773 ft 94 kts 348°
2026-04-29 13:36 51.51982 5.42830 2987 ft 106 kts 320°
2026-04-29 13:36 51.52441 5.41907 3225 ft 106 kts 319°
2026-04-29 13:37 51.52908 5.40996 3475 ft 107 kts 322°
2026-04-29 13:37 51.53385 5.40067 3668 ft 108 kts 320°
2026-04-29 13:37 51.53857 5.39123 3856 ft 109 kts 320°
2026-04-29 13:37 51.54340 5.38169 4028 ft 111 kts 320°
2026-04-29 13:38 51.54823 5.37217 4209 ft 112 kts 318°
2026-04-29 13:38 51.55317 5.36241 4393 ft 113 kts 318°
2026-04-29 13:38 51.55818 5.35256 4577 ft 115 kts 318°
2026-04-29 13:38 51.56309 5.34227 4777 ft 119 kts 305°
2026-04-29 13:39 51.56655 5.33010 4966 ft 123 kts 297°
2026-04-29 13:39 51.57019 5.31667 4973 ft 138 kts 297°
2026-04-29 13:39 51.57419 5.30208 4977 ft 147 kts 299°
2026-04-29 13:39 51.57846 5.28658 4959 ft 155 kts 298°
2026-04-29 13:40 51.58272 5.27079 4960 ft 156 kts 298°
2026-04-29 13:40 51.58705 5.25475 4961 ft 157 kts 297°
2026-04-29 13:40 51.59143 5.23859 4962 ft 158 kts 297°
2026-04-29 13:40 51.59582 5.22235 4965 ft 159 kts 297°
2026-04-29 13:41 51.60026 5.20606 4965 ft 160 kts 297°
2026-04-29 13:41 51.60468 5.18974 4961 ft 159 kts 297°
2026-04-29 13:41 51.60906 5.17347 4961 ft 158 kts 297°
2026-04-29 13:41 51.61345 5.15719 4963 ft 159 kts 297°
2026-04-29 13:42 51.61790 5.14071 4966 ft 161 kts 297°
2026-04-29 13:42 51.62230 5.12442 4965 ft 161 kts 298°
2026-04-29 13:42 51.62791 5.10924 4962 ft 155 kts 318°
2026-04-29 13:42 51.63502 5.09629 4964 ft 154 kts 320°
2026-04-29 13:43 51.64219 5.08351 4961 ft 154 kts 320°
2026-04-29 13:43 51.64933 5.07075 4960 ft 153 kts 320°
2026-04-29 13:43 51.65644 5.05799 4959 ft 153 kts 319°
2026-04-29 13:43 51.66351 5.04529 4960 ft 152 kts 319°
2026-04-29 13:44 51.67060 5.03252 4960 ft 153 kts 319°
2026-04-29 13:44 51.67767 5.01978 4959 ft 152 kts 319°
2026-04-29 13:44 51.68472 5.00710 4962 ft 152 kts 319°
2026-04-29 13:44 51.69169 4.99455 4958 ft 152 kts 319°
2026-04-29 13:45 51.69875 4.98191 4965 ft 152 kts 320°
2026-04-29 13:45 51.70586 4.96904 4957 ft 154 kts 319°
2026-04-29 13:45 51.71293 4.95622 4959 ft 152 kts 319°
2026-04-29 13:45 51.71999 4.94346 4959 ft 152 kts 319°
2026-04-29 13:46 51.72702 4.93075 4964 ft 152 kts 319°
2026-04-29 13:46 51.73421 4.91787 4960 ft 153 kts 319°
2026-04-29 13:46 51.74120 4.90523 4969 ft 153 kts 319°
2026-04-29 13:46 51.74829 4.89230 4966 ft 154 kts 318°
2026-04-29 13:47 51.75542 4.87944 4973 ft 153 kts 319°
2026-04-29 13:47 51.76249 4.86655 4971 ft 154 kts 319°
2026-04-29 13:47 51.76960 4.85368 4976 ft 154 kts 319°
2026-04-29 13:47 51.77669 4.84055 4964 ft 155 kts 318°
2026-04-29 13:48 51.78389 4.82764 4965 ft 156 kts 320°
2026-04-29 13:48 51.79105 4.81491 4972 ft 154 kts 319°
2026-04-29 13:48 51.79809 4.80212 4969 ft 152 kts 319°
2026-04-29 13:48 51.80504 4.78945 4961 ft 149 kts 319°
2026-04-29 13:49 51.81182 4.77709 4968 ft 146 kts 319°
2026-04-29 13:49 51.81783 4.76363 4969 ft 150 kts 304°
2026-04-29 13:49 51.82020 4.74715 4955 ft 150 kts 274°
2026-04-29 13:49 51.82084 4.73014 4819 ft 154 kts 273°
2026-04-29 13:50 51.82138 4.71283 4733 ft 154 kts 273°
2026-04-29 13:50 51.82184 4.69550 4623 ft 154 kts 272°
2026-04-29 13:50 51.82230 4.67827 4516 ft 153 kts 272°
2026-04-29 13:50 51.82267 4.66138 4389 ft 152 kts 273°
2026-04-29 13:51 51.82295 4.64437 4227 ft 151 kts 272°
2026-04-29 13:51 51.82327 4.62740 4060 ft 151 kts 272°
2026-04-29 13:51 51.82357 4.61075 3986 ft 143 kts 272°
2026-04-29 13:51 51.82376 4.59493 3986 ft 140 kts 272°
2026-04-29 13:52 51.82388 4.57911 3990 ft 143 kts 272°
2026-04-29 13:52 51.82411 4.56325 3965 ft 141 kts 272°
2026-04-29 13:52 51.82441 4.54747 3800 ft 142 kts 274°
2026-04-29 13:52 51.82450 4.53158 3612 ft 139 kts 272°
2026-04-29 13:53 51.82459 4.51565 3263 ft 144 kts 272°
2026-04-29 13:53 51.82455 4.49959 2970 ft 144 kts 273°
2026-04-29 13:53 51.82440 4.48329 2678 ft 145 kts 272°
2026-04-29 13:53 51.82413 4.46715 2415 ft 142 kts 273°
2026-04-29 13:54 51.82395 4.45126 2143 ft 141 kts 272°
2026-04-29 13:54 51.82381 4.43586 1992 ft 128 kts 271°
2026-04-29 13:54 51.82364 4.42233 1981 ft 117 kts 271°
2026-04-29 13:54 51.82352 4.40774 1994 ft 139 kts 272°
2026-04-29 13:55 51.82345 4.39208 1992 ft 142 kts 272°
2026-04-29 13:55 51.82322 4.37637 1982 ft 137 kts 272°
2026-04-29 13:55 51.82290 4.36073 1975 ft 141 kts 272°
2026-04-29 13:55 51.82266 4.34491 1973 ft 140 kts 272°
2026-04-29 13:56 51.82244 4.32933 1991 ft 141 kts 272°
2026-04-29 13:56 51.82231 4.31339 1972 ft 142 kts 272°
2026-04-29 13:56 51.82217 4.29754 1974 ft 141 kts 272°
2026-04-29 13:56 51.82204 4.28174 1974 ft 142 kts 272°
2026-04-29 13:57 51.82183 4.26595 1970 ft 140 kts 272°
2026-04-29 13:57 51.82245 4.25034 1970 ft 137 kts 295°
2026-04-29 13:57 51.82753 4.23845 1977 ft 125 kts 330°
2026-04-29 13:57 51.83184 4.23226 1988 ft 127 kts 334°
2026-04-29 13:58 51.84089 4.21960 1977 ft 130 kts 333°
2026-04-29 13:58 51.84786 4.21004 1969 ft 130 kts 334°
2026-04-29 13:58 51.85554 4.20636 1983 ft 107 kts 20°
2026-04-29 13:58 51.86149 4.21134 1978 ft 92 kts 46°
2026-04-29 13:59 51.86620 4.21800 1973 ft 87 kts 58°
2026-04-29 13:59 51.86988 4.22565 1979 ft 85 kts 59°
2026-04-29 13:59 51.87341 4.23337 1978 ft 86 kts 60°
2026-04-29 13:59 51.87683 4.24118 1995 ft 86 kts 60°
2026-04-29 14:00 51.88031 4.24945 1984 ft 89 kts 60°
2026-04-29 14:00 51.88375 4.25776 1988 ft 88 kts 61°
2026-04-29 14:00 51.88715 4.26601 1986 ft 87 kts 61°
2026-04-29 14:00 51.89046 4.27423 1979 ft 87 kts 62°
2026-04-29 14:01 51.89369 4.28229 1995 ft 88 kts 63°
2026-04-29 14:01 51.89705 4.29067 1987 ft 89 kts 63°
2026-04-29 14:01 51.90039 4.29903 1947 ft 91 kts 62°
2026-04-29 14:01 51.90393 4.30795 1821 ft 97 kts 62°
2026-04-29 14:02 51.90770 4.31728 1683 ft 99 kts 62°
2026-04-29 14:02 51.91140 4.32658 1549 ft 98 kts 60°
2026-04-29 14:02 51.91514 4.33590 1410 ft 98 kts 62°
2026-04-29 14:02 51.91878 4.34494 1291 ft 93 kts 62°
2026-04-29 14:03 51.92227 4.35368 1155 ft 92 kts 61°
2026-04-29 14:03 51.92563 4.36228 1031 ft 90 kts 63°
2026-04-29 14:03 51.92906 4.37051 912 ft 90 kts 60°
2026-04-29 14:03 51.93251 4.37921 774 ft 95 kts 62°
2026-04-29 14:04 51.93616 4.38829 661 ft 96 kts 62°
2026-04-29 14:04 51.93977 4.39751 526 ft 100 kts 62°
2026-04-29 14:04 51.94359 4.40720 384 ft 97 kts 64°
2026-04-29 14:04 51.94683 4.41497 289 ft 71 kts 64°
2026-04-29 14:05 51.95058 4.42044 223 ft 65 kts 43°
2026-04-29 14:05 51.95191 4.42618 346 ft 51 kts 73°
2026-04-29 14:05 51.95378 4.43214 416 ft 71 kts 62°
2026-04-29 14:05 51.95657 4.43874 596 ft 72 kts 58°
2026-04-29 14:06 51.95922 4.44567 742 ft 74 kts 76°
2026-04-29 14:06 51.95787 4.45317 1028 ft 73 kts 119°
2026-04-29 14:06 51.95311 4.45698 1258 ft 79 kts 142°
2026-04-29 14:06 51.94793 4.45996 1424 ft 81 kts 141°
2026-04-29 14:07 51.94263 4.46302 1604 ft 81 kts 141°
2026-04-29 14:07 51.93729 4.46581 1790 ft 81 kts 142°
2026-04-29 14:07 51.93188 4.46852 1942 ft 82 kts 141°
2026-04-29 14:07 51.92625 4.47121 1989 ft 92 kts 146°
2026-04-29 14:08 51.91891 4.46992 1987 ft 122 kts 187°
2026-04-29 14:08 51.91219 4.46009 1984 ft 140 kts 232°
2026-04-29 14:08 51.90803 4.44571 1995 ft 141 kts 242°
2026-04-29 14:08 51.90402 4.43155 1989 ft 139 kts 242°
2026-04-29 14:09 51.89991 4.41735 1987 ft 139 kts 242°
2026-04-29 14:09 51.89585 4.40338 1983 ft 137 kts 242°
2026-04-29 14:09 51.89193 4.38927 1989 ft 137 kts 242°
2026-04-29 14:09 51.88790 4.37503 1997 ft 141 kts 242°
2026-04-29 14:10 51.88364 4.36035 1993 ft 147 kts 242°
2026-04-29 14:10 51.87929 4.34535 1993 ft 146 kts 242°
2026-04-29 14:10 51.87503 4.33053 1994 ft 146 kts 242°
2026-04-29 14:10 51.87087 4.31569 1979 ft 143 kts 242°
2026-04-29 14:11 51.86686 4.30154 1981 ft 138 kts 243°
2026-04-29 14:11 51.86269 4.28745 1980 ft 139 kts 242°
2026-04-29 14:11 51.85843 4.27295 1966 ft 141 kts 243°
2026-04-29 14:11 51.85428 4.25904 1996 ft 137 kts 242°
2026-04-29 14:12 51.85028 4.24455 1959 ft 144 kts 251°
2026-04-29 14:12 51.85044 4.22907 1991 ft 135 kts 297°
2026-04-29 14:12 51.85577 4.21767 1972 ft 119 kts 341°
2026-04-29 14:12 51.86288 4.21531 1976 ft 96 kts 25°
2026-04-29 14:13 51.86768 4.22102 1979 ft 83 kts 59°
2026-04-29 14:13 51.87116 4.22833 1992 ft 82 kts 58°
2026-04-29 14:13 51.87452 4.23581 1981 ft 83 kts 59°
2026-04-29 14:13 51.87777 4.24336 1989 ft 83 kts 60°
2026-04-29 14:14 51.88100 4.25109 1988 ft 83 kts 61°
2026-04-29 14:14 51.88421 4.25885 1985 ft 83 kts 60°
2026-04-29 14:14 51.88747 4.26677 1987 ft 85 kts 62°
2026-04-29 14:14 51.89071 4.27489 1977 ft 85 kts 63°
2026-04-29 14:15 51.89391 4.28288 1996 ft 86 kts 63°
2026-04-29 14:15 51.89723 4.29113 1986 ft 87 kts 63°
2026-04-29 14:15 51.90050 4.29934 1942 ft 89 kts 62°
2026-04-29 14:15 51.90401 4.30815 1816 ft 96 kts 62°
2026-04-29 14:16 51.90773 4.31739 1681 ft 98 kts 61°
2026-04-29 14:16 51.91149 4.32677 1542 ft 100 kts 61°
2026-04-29 14:16 51.91521 4.33614 1408 ft 97 kts 62°
2026-04-29 14:16 51.91883 4.34487 1290 ft 89 kts 64°
2026-04-29 14:17 51.92193 4.35288 1160 ft 79 kts 61°
2026-04-29 14:17 51.92481 4.35984 1071 ft 71 kts 63°
2026-04-29 14:17 51.92743 4.36645 982 ft 71 kts 62°
2026-04-29 14:17 51.93016 4.37324 884 ft 73 kts 63°
2026-04-29 14:18 51.93290 4.38045 793 ft 72 kts 64°
2026-04-29 14:18 51.93577 4.38727 669 ft 72 kts 59°
2026-04-29 14:18 51.93848 4.39401 566 ft 73 kts 68°
2026-04-29 14:18 51.94095 4.40123 495 ft 68 kts 72°
2026-04-29 14:19 51.94348 4.40706 382 ft 63 kts 59°
2026-04-29 14:19 51.94559 4.41263 298 ft 56 kts 63°
2026-04-29 14:19 51.94769 4.41755 298 ft 54 kts 65°
2026-04-29 14:19 51.95008 4.42289 208 ft 59 kts 60°
2026-04-29 14:20 51.95233 4.42872 66 ft 62 kts 64°
2026-04-29 14:20 51.95448 4.43417 1 ft 53 kts 63°
2026-04-29 14:20 51.95601 4.43814 -6 ft 27 kts 62°
2026-04-29 14:20 51.95671 4.43976 -6 ft 15 kts 51°
2026-04-29 14:21 51.95742 4.44157 -6 ft 24 kts 58°
2026-04-29 14:21 51.95837 4.44405 -7 ft 25 kts 60°
2026-04-29 14:21 51.95903 4.44606 -8 ft 13 kts 72°
2026-04-29 14:21 51.95902 4.44682 -7 ft 5 kts 131°
2026-04-29 14:22 51.95876 4.44715 -6 ft 5 kts 136°
2026-04-29 14:22 51.95858 4.44734 -6 ft 0 kts 144°
2026-04-29 14:23 51.95844 4.44753 -6 ft 5 kts 153°
2026-04-29 14:23 51.95799 4.44763 -6 ft 9 kts 189°
2026-04-29 14:23 51.95748 4.44664 -6 ft 22 kts 237°
2026-04-29 14:24 51.95653 4.44441 -6 ft 21 kts 240°
2026-04-29 14:24 51.95583 4.44256 -5 ft 19 kts 237°
2026-04-29 14:24 51.95513 4.44082 -6 ft 16 kts 237°
2026-04-29 14:24 51.95475 4.43982 -6 ft 15 kts 237°
2026-04-29 14:25 51.95400 4.43790 -6 ft 27 kts 236°
2026-04-29 14:25 51.95304 4.43554 -6 ft 23 kts 240°
2026-04-29 14:25 51.95198 4.43494 -6 ft 5 kts 149°
2026-04-29 14:25 51.95151 4.43547 -6 ft 13 kts 148°
2026-04-29 14:26 51.95051 4.43653 -6 ft 21 kts 129°
2026-04-29 14:26 51.95022 4.43742 -6 ft 8 kts 120°
2026-04-29 14:26 51.95034 4.43828 -6 ft 12 kts 58°
2026-04-29 14:26 51.95051 4.43944 -6 ft 3 kts 110°
2026-04-29 14:27 51.95029 4.43983 -6 ft 6 kts 153°
2026-04-29 14:27 51.94958 4.44061 -6 ft 13 kts 115°
2026-04-29 14:27 51.94974 4.44109 -6 ft 3 kts 307°
2026-04-29 14:28 51.94977 4.44080 -6 ft 0 kts 296°
2026-04-29 14:28 51.94978 4.44079 -6 ft 0 kts 347°